RADUGA 1 1 08513U 75123A 25039.84085752 -.00000042 00000-0 00000-0 0 9990 2 08513 4.0792 274.5865 0005084 267.4224 329.2228 1.00293156189869 RADUGA 2 1 9416U 76092A 25040.05840400 -.00000198 00000-0 00000+0 0 9994 2 9416 4.7513 277.0290 0029455 24.8491 304.4077 1.00279837124393 RADUGA 3 1 10159U 77071A 25039.69697422 -.00000285 00000-0 00000-0 0 9998 2 10159 5.3848 280.2349 0008442 285.4619 282.6996 1.00206160172094 RADUGA 4 1 10987U 78073A 25039.83555781 .00000138 00000-0 00000-0 0 9993 2 10987 6.0401 284.5554 0010832 22.3124 175.7458 1.00308218114656 RADUGA 5 1 11343U 79035A 25040.12799524 -.00000094 00000-0 00000+0 0 9999 2 11343 6.5284 287.8699 0003655 209.5803 124.0835 1.00246998124384 RADUGA 6 1 11708U 80016A 25039.67837600 -.00000138 00000-0 00000-0 0 9991 2 11708 6.9304 291.5612 0001698 302.5806 227.4438 1.00343945117216 RADUGA 7 1 12003U 80081A 25039.64758888 .00000099 00000-0 00000-0 0 9994 2 12003 7.1432 293.8710 0010753 304.0614 322.7689 1.00298600118350 RADUGA 8 1 12351U 81027A 25039.67837600 -.00000181 00000-0 00000-0 0 9997 2 12351 7.4842 294.2669 0079835 259.0967 271.0960 1.00418789117593 RADUGA 9 1 12618U 81069A 25039.81225277 .00000037 00000-0 00000+0 0 9994 2 12618 7.7538 297.8895 0001006 174.1552 18.7937 1.00348440123386 RADUGA 10 1 12897U 81102A 25039.75322542 -.00000173 00000-0 00000-0 0 9990 2 12897 7.8578 299.0560 0003426 234.3035 320.9239 1.00259732112393 RADUGA 11 1 13669U 82113A 25039.57386878 -.00000079 00000-0 00000-0 0 9998 2 13669 10.1828 314.5461 0040821 281.5483 218.0713 0.97708340116713 RADUGA 12 1 13974U 83028A 25039.63940929 -.00000105 00000-0 00000-0 0 9993 2 13974 9.2185 309.8746 0001251 5.1589 130.1866 1.00295055164435 RADUGA 13 1 14307U 83088A 25037.30044716 -.00000054 00000-0 00000+0 0 9993 2 14307 10.4859 315.9896 0016600 54.5795 159.5913 0.98173319114069 RADUGA 14 1 14725U 84016A 25039.75322542 -.00000134 00000-0 00000-0 0 9996 2 14725 9.5281 314.1122 0001858 162.6040 13.6186 1.00247564113156 RADUGA 15 1 15057U 84063A 25038.75478172 -.00000188 00000-0 00000-0 0 9996 2 15057 9.6806 315.1258 0003295 214.3319 323.3778 1.00378272136144 RADUGA 16 1 15946U 85070A 25039.17179358 -.00000280 00000-0 00000-0 0 9996 2 15946 10.2785 320.0359 0001907 279.3147 258.9171 1.00192767117276 RADUGA 17 1 16250U 85107A 25038.23995760 -.00000224 00000-0 00000-0 0 9993 2 16250 10.4474 321.5561 0012859 223.1534 321.0989 1.00135870146710 RADUGA 18 1 16497U 86007A 25039.65427461 -.00000175 00000-0 00000-0 0 9996 2 16497 11.3194 324.3818 0071481 189.7074 41.1811 0.98815045140982 RADUGA 19 1 17046U 86082A 25039.83586286 .00000007 00000-0 00000+0 0 9993 2 17046 11.8822 328.5130 0010991 182.3441 5.3347 0.98458414138093 RADUGA 20 1 17611U 87028A 25039.17266238 -.00000119 00000-0 00000-0 0 9997 2 17611 13.9837 331.7834 0028150 162.9598 7.7387 0.95961169133571 RADUGA 21 1 18631U 87100A 25039.22912894 .00000056 00000-0 00000-0 0 9992 2 18631 12.0127 328.7898 0001203 214.9171 266.0366 1.00196902136131 RADUGA 22 1 19596U 88095A 25039.73641914 -.00000371 00000-0 00000-0 0 9996 2 19596 12.1656 333.4641 0005565 190.4841 350.2521 1.00357440116702 RADUGA 23 1 19928U 89030A 25039.97691013 .00000127 00000-0 00000+0 0 9993 2 19928 12.3792 335.3122 0020183 195.9855 355.0786 1.00315194129897 RADUGA 1-1 1 20083U 89048A 25039.91781095 .00000006 00000-0 00000-0 0 9997 2 20083 13.2387 338.5176 0019574 141.2338 39.9832 0.98707496126407 RADUGA 24 1 20367U 89098A 25039.90844832 .00000089 00000-0 00000-0 0 9996 2 20367 13.0360 337.3225 0002506 257.8869 281.2621 1.00234519128026 RADUGA 25 1 20499U 90016A 25039.25875368 -.00000302 00000-0 00000-0 0 9999 2 20499 12.8393 338.1341 0004317 207.4518 354.4109 1.00334936127956 RADUGA 26 1 21016U 90112A 25039.83586286 -.00000202 00000-0 00000-0 0 9993 2 21016 13.2795 341.3880 0003997 120.0574 62.1296 1.00318321125310 RADUGA 1-2 1 21038U 90116A 25039.90923024 .00000057 00000-0 00000-0 0 9991 2 21038 13.3201 341.4343 0005287 135.3003 43.7181 1.00305715 42399 RADUGA 27 1 21132U 91014A 25039.64927176 .00000117 00000-0 00000-0 0 9994 2 21132 13.8004 340.5975 0000396 222.8416 199.1997 1.00217017124363 RADUGA 28 1 21821U 91087A 25038.77626970 -.00000338 00000-0 00000-0 0 9996 2 21821 13.7314 344.6393 0005038 175.1382 2.1408 1.00209542121361 RADUGA 29 1 22557U 93013A 25039.92935087 .00000049 00000-0 00000-0 0 9992 2 22557 14.1089 348.7820 0004694 170.5528 327.4237 1.00249553116734 RADUGA 30 1 22836U 93062A 25039.91227106 -.00000065 00000-0 00000-0 0 9990 2 22836 14.2393 350.7987 0004100 301.3390 245.2185 1.00266495 41058 RADUGA 1-3 1 22981U 94008A 25039.84381146 -.00000190 00000-0 00000+0 0 9997 2 22981 14.3658 351.9045 0001565 204.2545 330.9990 1.00218343113568 RADUGA 31 1 23010U 94012A 25039.91313987 -.00000119 00000-0 00000-0 0 9994 2 23010 14.3363 351.9171 0002465 149.5601 40.2919 1.00340078113405 RADUGA 32 1 23448U 94087A 25039.91253170 -.00000076 00000-0 00000+0 0 9999 2 23448 14.4380 354.6706 0007733 246.1326 297.7844 1.00266255127994 RADUGA 1-4 1 25642U 99010A 25040.04910779 .00000109 00000-0 00000+0 0 9995 2 25642 15.5044 5.7236 0006576 264.4830 286.1288 1.00307479 95026 RADUGA 1-5 1 26477U 00049A 25040.05110604 .00000078 00000-0 00000+0 0 9991 2 26477 13.6847 11.6636 0001612 79.8976 115.3562 1.00309504 89547 RADUGA 1-6 1 26936U 01045A 25039.24530130 -.00000142 00000-0 00000-0 0 9991 2 26936 14.1410 18.2110 0018360 198.3244 320.0438 0.97745012 83771 RADUGA 1-7 1 28194U 04010A 25039.85119410 -.00000381 00000-0 00000-0 0 9990 2 28194 13.1031 24.6161 0004988 227.8257 314.8288 1.00320813 76473 RADUGA 1M-1 1 32373U 07058A 25039.18925656 .00000005 00000-0 00000-0 0 9994 2 32373 9.0667 56.3827 0002189 261.7284 274.5468 0.99397537 47480 RADUGA 1-8 1 34264U 09010A 25039.15878106 -.00000207 00000-0 00000-0 0 9994 2 34264 11.1414 46.2138 0010791 15.7244 118.1072 0.99830975 58247 RADUGA 1M-2 1 36358U 10002A 25040.16225152 -.00000187 00000-0 00000+0 0 9999 2 36358 2.3359 85.2128 0004256 242.2541 315.0801 1.00252107 55064 RADUGA 1M-3 1 39375U 13062A 25040.11982848 .00000143 00000-0 00000+0 0 9998 2 39375 4.7053 78.4621 0000508 337.9507 161.1494 1.00271309 41186